Weather History for Park Rapids, MN

Change the Weather History Date:

Friday, April 5, 2013

  Actual Average Record
Temperature  
Mean Temperature 22 °F -  
Max Temperature 34 °F 48 °F 76 °F (1991)
Min Temperature 9 °F 22 °F 1 °F (1968)
Degree Days  
Heating Degree Days 44    
Moisture  
Dew Point 18 °F    
Average Humidity 72    
Maximum Humidity 86    
Minimum Humidity 46    
Precipitation  
Precipitation 0.00 in - - ()
Sea Level Pressure  
Sea Level Pressure 30.13 in    
Wind  
Wind Speed 8 mph (SE)    
Max Wind Speed 18 mph    
Max Gust Speed 23 mph    
Visibility 8 miles    
Events Snow    
Averages and records for this station are not official NWS values.
T = Trace of Precipitation, MM = Missing Value Source: NWS Daily Summary

Daily Weather History Graph

Daily Weather History Graph

Search for Another Location

Airport:

Trip Planner

Search our weather history database for the weather conditions in past years. The results will help you decide how hot, cold, wet, or windy it might be!

Date:

Astronomy

Apr. 05, 2013 Rise Set
Actual Time 6:51 AM CDT 7:55 PM CDT
Civil Twilight 6:20 AM CDT 8:26 PM CDT
Nautical Twilight 5:42 AM CDT 9:03 PM CDT
Astronomical Twilight 5:03 AM CDT 9:43 PM CDT
Moon 4:16 AM CDT (4/5) 3:04 PM CDT (4/5)
Length of Visible Light 14h 06m
Length of Day
13h 04m
Waning Crescent, 23% of the Moon is Illuminated
Apr 5
Waning Crescent
Apr 10
New
Apr 18
First Quarter
Apr 25
Full
May 2
Last Quarter

Hourly Weather History & Observations

Time (CDT) Temp. Windchill Dew Point Humidity Pressure Visibility Wind Dir Wind Speed Gust Speed Precip Events Conditions
12:53 AM 21.9 °F 13.4 °F 12.9 °F 68% 30.27 in 10.0 mi North 6.9 mph - N/A   Clear
1:53 AM 21.0 °F 13.4 °F 12.0 °F 68% 30.27 in 10.0 mi NNE 5.8 mph - N/A   Clear
2:53 AM 12.9 °F 6.9 °F 8.1 °F 81% 30.28 in 10.0 mi West 3.5 mph - N/A   Clear
3:53 AM 15.1 °F - 10.0 °F 80% 30.28 in 10.0 mi Calm Calm - N/A   Clear
4:53 AM 10.0 °F - 5.0 °F 80% 30.30 in 10.0 mi Calm Calm - N/A   Clear
5:53 AM 12.9 °F - 8.1 °F 81% 30.29 in 10.0 mi Calm Calm - N/A   Clear
6:53 AM 9.0 °F - 3.9 °F 80% 30.30 in 10.0 mi Calm Calm - N/A   Clear
7:53 AM 17.1 °F - 12.0 °F 81% 30.28 in 10.0 mi Calm Calm - N/A   Clear
8:53 AM 23.0 °F 13.1 °F 12.0 °F 63% 30.26 in 10.0 mi East 9.2 mph - N/A   Clear
9:53 AM 27.0 °F 18.7 °F 12.9 °F 56% 30.24 in 10.0 mi ESE 8.1 mph - N/A   Clear
10:53 AM 30.9 °F 22.2 °F 14.0 °F 50% 30.22 in 10.0 mi SE 10.4 mph - N/A   Clear
11:53 AM 32.0 °F 23.0 °F 16.0 °F 52% 30.21 in 10.0 mi SSE 11.5 mph - N/A   Mostly Cloudy
12:53 PM 33.1 °F 23.9 °F 14.0 °F 46% 30.18 in 10.0 mi SE 12.7 mph - N/A   Overcast
1:53 PM 34.0 °F 24.6 °F 16.0 °F 48% 30.16 in 10.0 mi SSE 13.8 mph - N/A   Overcast
2:53 PM 34.0 °F 23.0 °F 17.1 °F 50% 30.13 in 10.0 mi SSE 18.4 mph - N/A   Overcast
3:53 PM 32.0 °F 20.5 °F 19.9 °F 61% 30.10 in 3.0 mi SSE 18.4 mph 23.0 mph 0.00 in Snow Light Snow
4:01 PM 32.0 °F 21.2 °F 21.2 °F 64% 30.03 in 1.8 mi SSE 16.1 mph - 0.00 in Snow Light Snow
4:37 PM 30.2 °F 19.8 °F 24.8 °F 80% 30.00 in 1.5 mi SSE 13.8 mph - 0.00 in Snow Light Snow
4:53 PM 30.0 °F 19.1 °F 25.0 °F 82% 30.08 in 1.2 mi SE 15.0 mph - 0.00 in Snow Light Snow
5:15 PM 30.2 °F 20.2 °F 24.8 °F 80% 30.00 in 2.0 mi SE 12.7 mph - 0.00 in Snow Light Snow
5:30 PM 30.2 °F 19.8 °F 24.8 °F 80% 29.99 in 1.5 mi SE 13.8 mph - 0.00 in Snow Light Snow
5:42 PM 30.2 °F 19.8 °F 26.6 °F 86% 29.98 in 2.0 mi SE 13.8 mph - 0.00 in Snow Light Snow
5:53 PM 28.9 °F 20.4 °F 25.0 °F 85% 30.06 in 2.5 mi SE 9.2 mph - 0.00 in Snow Light Snow
6:01 PM 30.2 °F 20.8 °F 26.6 °F 86% 29.98 in 4.0 mi SE 11.5 mph - 0.00 in Snow Light Snow
6:53 PM 30.0 °F 21.1 °F 26.1 °F 85% 30.06 in 10.0 mi SE 10.4 mph - 0.00 in   Overcast
7:53 PM 30.0 °F 22.4 °F 25.0 °F 82% 30.01 in 10.0 mi ESE 8.1 mph - N/A   Overcast
8:53 PM 30.9 °F 21.7 °F 25.0 °F 79% 30.00 in 10.0 mi ESE 11.5 mph - N/A   Overcast
9:53 PM 30.9 °F 22.8 °F 25.0 °F 79% 29.98 in 10.0 mi ESE 9.2 mph 18.4 mph N/A   Overcast
10:53 PM 30.9 °F 22.2 °F 24.1 °F 76% 29.94 in 10.0 mi ESE 10.4 mph 18.4 mph N/A   Overcast
11:53 PM 30.9 °F 22.2 °F 24.1 °F 76% 29.90 in 10.0 mi ESE 10.4 mph - N/A   Mostly Cloudy